This is the latest recevied weather packets stored in our database for station/object EA2DXT-10. If no packets are shown the sender has not sent any weather packets the latest 10 day(s).
| Time | Temp. | Humidity | Pressure | Rain* | Wind** | Luminosity | Snow |
|---|---|---|---|---|---|---|---|
| 1777317100 | 16.11° C | 69% | 950 hPa | - | - | - | - |
| 1777316200 | 16.11° C | 69% | 950.1 hPa | - | - | - | - |
| 1777315300 | 16.67° C | 69% | 950.6 hPa | - | - | - | - |
| 1777314399 | 17.22° C | 69% | 951.1 hPa | - | - | - | - |
| 1777313499 | 18.33° C | 69% | 951.1 hPa | - | - | - | - |
| 1777312598 | 17.22° C | 69% | 951.3 hPa | - | - | - | - |
| 1777311698 | 17.78° C | 69% | 951.2 hPa | - | - | - | - |
| 1777310798 | 18.33° C | 69% | 951.1 hPa | - | - | - | - |
| 1777310764 | 18.33° C | 55% | 951 hPa | - | - | - | - |
| 1777310627 | 18.33° C | 55% | 951 hPa | - | - | - | - |
| 1777310430 | 18.33° C | 54% | 950.9 hPa | - | - | - | - |
| 1777309528 | 18.33° C | 54% | 950.6 hPa | - | - | - | - |
| 1777308833 | 18.89° C | 54% | 950.6 hPa | - | - | - | - |
| 1777307933 | 19.44° C | 53% | 950.1 hPa | - | - | - | - |
| 1777307033 | 20° C | 52% | 950.1 hPa | - | - | - | - |
| 1777306133 | 20.56° C | 52% | 950.2 hPa | - | - | - | - |
| 1777305233 | 20.56° C | 52% | 950.2 hPa | - | - | - | - |
| 1777304333 | 21.11° C | 52% | 950.2 hPa | - | - | - | - |
| 1777303432 | 20.56° C | 52% | 950.3 hPa | - | - | - | - |
| 1777302532 | 20.56° C | 52% | 950.4 hPa | - | - | - | - |
| 1777301632 | 21.67° C | 51% | 950.6 hPa | - | - | - | - |
| 1777300732 | 22.22° C | 50% | 950.7 hPa | - | - | - | - |
| 1777299832 | 23.33° C | 50% | 950.9 hPa | - | - | - | - |
| 1777298932 | 23.89° C | 50% | 950.9 hPa | - | - | - | - |
| 1777298031 | 23.89° C | 50% | 951 hPa | - | - | - | - |
* Rain since midnight (hover to see other rain measurements)
** Current wind speed in m/s (hover to see current wind gust speed)